AUA56U LOWW-LIRF

Flight info

Callsign AUA56U
Flight time N/A
Altitude 36000
Route IRGO1A/11 RUPET DCT GRZ DCT GIRDA DCT BAXON/N0454F350 DCT UNUMU DCT ETPOK DCT RITEB
Aircraft A320/M-SDE3FGHIRWY/LB1

Departure

Time 2026-05-06 20:28
Airport Vienna International Airport (LOWW)

Arrival

Time N/A
Airport Rome–Fiumicino Leonardo da Vinci International Airport (LIRF)
Time Latitude Longitude Altitude Speed Heading
2026-05-06 19:50 48.11823 16.56983 610 ft 0 kts 207°
2026-05-06 20:11 48.11831 16.56988 610 ft 2 kts 204°
2026-05-06 20:11 48.11846 16.56999 627 ft 2 kts 206°
2026-05-06 20:12 48.11861 16.57010 621 ft 2 kts 204°
2026-05-06 20:12 48.11876 16.57017 616 ft 2 kts 173°
2026-05-06 20:12 48.11892 16.57010 626 ft 2 kts 142°
2026-05-06 20:12 48.11902 16.56997 626 ft 1 kts 120°
2026-05-06 20:13 48.11903 16.56994 624 ft 0 kts 117°
2026-05-06 20:14 48.11901 16.57002 626 ft 3 kts 117°
2026-05-06 20:14 48.11885 16.57050 615 ft 7 kts 116°
2026-05-06 20:15 48.11866 16.57109 615 ft 0 kts 115°
2026-05-06 20:15 48.11865 16.57109 615 ft 0 kts 115°
2026-05-06 20:16 48.11860 16.57127 617 ft 5 kts 115°
2026-05-06 20:16 48.11856 16.57200 610 ft 10 kts 92°
2026-05-06 20:17 48.11825 16.57307 616 ft 12 kts 116°
2026-05-06 20:17 48.11745 16.57372 616 ft 15 kts 163°
2026-05-06 20:17 48.11632 16.57419 614 ft 19 kts 163°
2026-05-06 20:17 48.11513 16.57464 615 ft 17 kts 178°
2026-05-06 20:18 48.11395 16.57391 616 ft 19 kts 205°
2026-05-06 20:18 48.11277 16.57305 617 ft 18 kts 205°
2026-05-06 20:18 48.11240 16.57179 610 ft 17 kts 295°
2026-05-06 20:18 48.11302 16.56991 616 ft 23 kts 296°
2026-05-06 20:19 48.11374 16.56771 615 ft 23 kts 296°
2026-05-06 20:19 48.11438 16.56570 615 ft 21 kts 296°
2026-05-06 20:19 48.11508 16.56356 612 ft 26 kts 296°
2026-05-06 20:19 48.11595 16.56091 614 ft 30 kts 296°
2026-05-06 20:20 48.11676 16.55840 621 ft 22 kts 296°
2026-05-06 20:20 48.11742 16.55638 612 ft 20 kts 296°
2026-05-06 20:20 48.11802 16.55458 611 ft 18 kts 296°
2026-05-06 20:20 48.11857 16.55284 615 ft 21 kts 295°
2026-05-06 20:21 48.11930 16.55062 613 ft 27 kts 296°
2026-05-06 20:21 48.12017 16.54794 614 ft 26 kts 296°
2026-05-06 20:21 48.12076 16.54608 609 ft 11 kts 287°
2026-05-06 20:21 48.12046 16.54541 613 ft 6 kts 200°
2026-05-06 20:22 48.12033 16.54538 613 ft 0 kts 184°
2026-05-06 20:23 48.12008 16.54546 620 ft 8 kts 158°
2026-05-06 20:23 48.11935 16.54619 617 ft 16 kts 146°
2026-05-06 20:23 48.11839 16.54716 615 ft 12 kts 146°
2026-05-06 20:23 48.11818 16.54760 612 ft 0 kts 115°
2026-05-06 20:27 48.11806 16.54797 626 ft 21 kts 115°
2026-05-06 20:28 48.11630 16.55333 621 ft 92 kts 116°
2026-05-06 20:28 48.11265 16.56464 619 ft 146 kts 115°
2026-05-06 20:28 48.10828 16.57866 1165 ft 146 kts 122°
2026-05-06 20:28 48.10360 16.59281 1676 ft 155 kts 125°
2026-05-06 20:29 48.09848 16.60749 2081 ft 167 kts 126°
2026-05-06 20:29 48.09292 16.62344 2507 ft 176 kts 126°
2026-05-06 20:29 48.08727 16.64014 2952 ft 184 kts 125°
2026-05-06 20:29 48.08146 16.65763 3361 ft 195 kts 125°
2026-05-06 20:30 48.07499 16.67690 3621 ft 217 kts 124°
2026-05-06 20:30 48.05494 16.70866 4676 ft 216 kts 171°
2026-05-06 20:30 48.04016 16.70885 5253 ft 214 kts 197°
2026-05-06 20:31 48.02549 16.70324 5909 ft 222 kts 197°
2026-05-06 20:31 48.00982 16.69756 6341 ft 241 kts 196°
2026-05-06 20:31 47.99318 16.69192 6948 ft 250 kts 196°
2026-05-06 20:31 47.97611 16.68523 7625 ft 256 kts 206°
2026-05-06 20:32 47.96185 16.66978 8258 ft 261 kts 231°
2026-05-06 20:32 47.95364 16.64519 8929 ft 272 kts 257°
2026-05-06 20:32 47.95109 16.61721 9753 ft 272 kts 259°
2026-05-06 20:32 47.94800 16.58894 10427 ft 279 kts 257°
2026-05-06 20:33 47.94440 16.55956 10633 ft 302 kts 257°
2026-05-06 20:33 47.94035 16.52744 10803 ft 325 kts 257°
2026-05-06 20:33 47.93609 16.49340 11225 ft 337 kts 257°
2026-05-06 20:33 47.92985 16.45985 11838 ft 340 kts 244°
2026-05-06 20:34 47.91657 16.43068 12495 ft 342 kts 227°
2026-05-06 20:34 47.90016 16.40470 13199 ft 344 kts 226°
2026-05-06 20:34 47.88373 16.37902 13842 ft 347 kts 226°
2026-05-06 20:34 47.86690 16.35288 14440 ft 350 kts 226°
2026-05-06 20:35 47.84985 16.32642 15039 ft 353 kts 226°
2026-05-06 20:35 47.83291 16.30012 15614 ft 357 kts 226°
2026-05-06 20:35 47.81558 16.27314 16205 ft 360 kts 226°
2026-05-06 20:35 47.79836 16.24628 16778 ft 363 kts 226°
2026-05-06 20:36 47.78074 16.21879 17376 ft 366 kts 226°
2026-05-06 20:36 47.76323 16.19151 17933 ft 370 kts 226°
2026-05-06 20:36 47.74532 16.16363 18457 ft 373 kts 226°
2026-05-06 20:36 47.72730 16.13565 18975 ft 375 kts 226°
2026-05-06 20:37 47.70938 16.10783 19500 ft 377 kts 226°
2026-05-06 20:37 47.69093 16.07928 20029 ft 380 kts 225°
2026-05-06 20:37 47.67276 16.05120 20533 ft 382 kts 225°
2026-05-06 20:37 47.65423 16.02261 21019 ft 385 kts 225°
2026-05-06 20:38 47.63554 15.99378 21496 ft 387 kts 225°
2026-05-06 20:38 47.61696 15.96518 21974 ft 390 kts 225°
2026-05-06 20:38 47.59803 15.93607 22435 ft 392 kts 225°
2026-05-06 20:38 47.57897 15.90675 22850 ft 395 kts 225°
2026-05-06 20:39 47.56633 15.88731 23138 ft 396 kts 225°
2026-05-06 20:39 47.54080 15.84812 23654 ft 400 kts 225°
2026-05-06 20:39 47.52139 15.81843 24054 ft 401 kts 225°
2026-05-06 20:39 47.50844 15.79863 24285 ft 402 kts 225°
2026-05-06 20:40 47.48235 15.75928 24793 ft 404 kts 222°
2026-05-06 20:40 47.46004 15.73398 25154 ft 405 kts 212°
2026-05-06 20:40 47.44337 15.72057 25386 ft 407 kts 206°
2026-05-06 20:40 47.41706 15.70527 25728 ft 409 kts 202°
2026-05-06 20:41 47.39021 15.69038 26075 ft 411 kts 202°
2026-05-06 20:41 47.36363 15.67563 26400 ft 412 kts 202°
2026-05-06 20:41 47.33663 15.66063 26706 ft 413 kts 202°
2026-05-06 20:41 47.30989 15.64572 27004 ft 415 kts 203°
2026-05-06 20:42 47.28280 15.63060 27308 ft 417 kts 203°
2026-05-06 20:42 47.25545 15.61535 27601 ft 418 kts 203°
2026-05-06 20:42 47.22805 15.60011 27893 ft 420 kts 203°
2026-05-06 20:42 47.20081 15.58496 28174 ft 421 kts 203°
2026-05-06 20:43 47.17331 15.56970 28450 ft 422 kts 203°
2026-05-06 20:43 47.14602 15.55462 28705 ft 423 kts 203°
2026-05-06 20:43 47.11840 15.53935 28938 ft 425 kts 203°
2026-05-06 20:43 47.09054 15.52399 29180 ft 426 kts 203°
2026-05-06 20:44 47.06274 15.50871 29529 ft 424 kts 204°
2026-05-06 20:44 47.03538 15.49364 29863 ft 423 kts 204°
2026-05-06 20:44 47.00773 15.47840 30179 ft 421 kts 204°
2026-05-06 20:44 46.98058 15.46347 30473 ft 420 kts 204°
2026-05-06 20:45 46.95359 15.44689 30770 ft 416 kts 210°
2026-05-06 20:45 46.92905 15.42551 31064 ft 413 kts 214°
2026-05-06 20:45 46.90466 15.40292 31362 ft 411 kts 214°
2026-05-06 20:45 46.88039 15.38060 31674 ft 409 kts 214°
2026-05-06 20:46 46.85649 15.35877 31972 ft 408 kts 214°
2026-05-06 20:46 46.83233 15.33679 32271 ft 407 kts 214°
2026-05-06 20:46 46.80827 15.31493 32573 ft 405 kts 214°
2026-05-06 20:46 46.78463 15.29342 32865 ft 404 kts 214°
2026-05-06 20:47 46.76061 15.27157 33162 ft 403 kts 214°
2026-05-06 20:47 46.73714 15.25023 33445 ft 401 kts 214°
2026-05-06 20:47 46.71322 15.22849 33747 ft 400 kts 214°
2026-05-06 20:47 46.68990 15.20732 34027 ft 399 kts 214°
2026-05-06 20:48 46.66628 15.18587 34271 ft 398 kts 214°
2026-05-06 20:48 46.64272 15.16446 34470 ft 398 kts 214°
2026-05-06 20:48 46.61943 15.14333 34681 ft 398 kts 214°
2026-05-06 20:48 46.59572 15.12190 34891 ft 399 kts 214°
2026-05-06 20:49 46.57229 15.10078 35082 ft 399 kts 214°
2026-05-06 20:49 46.54867 15.07952 35260 ft 399 kts 214°
2026-05-06 20:49 46.52523 15.05844 35445 ft 399 kts 214°
2026-05-06 20:49 46.50156 15.03713 35634 ft 399 kts 214°
2026-05-06 20:50 46.47794 15.01591 35821 ft 399 kts 214°
2026-05-06 20:50 46.43072 14.97352 35928 ft 402 kts 214°